QPF
0.00 0.00 0.00 0.00 0.00 0.00 0.00 0.01 0.01 0.01 0.01 0.02 0.02 0.02 0.01 0.00 0.00 0.00 0.01 0.01 0.01 0.02 0.07 0.10 0.06 0.03 0.02 0.02 0.03 0.03 0.03 0.04 0.06 0.06 0.05 0.04 0.02 0.02 0.02 0.01 0.01 0.02 0.01 0.01
0.00 0.00 0.00 0.01 0.01 0.00 0.00 0.01 0.01 0.02 0.02 0.02 0.01 0.01 0.00 0.00 0.00 0.00 0.00 0.00 0.00 0.01 0.05 0.10 0.08 0.06 0.04 0.04 0.05 0.05 0.05 0.04 0.04 0.05 0.06 0.06 0.05 0.03 0.01 0.01 0.01 0.01 0.01 0.01
0.01 0.00 0.00 0.01 0.02 0.02 0.02 0.01 0.01 0.02 0.03 0.02 0.02 0.01 0.01 0.00 0.01 0.01 0.01 0.01 0.01 0.01 0.01 0.04 0.08 0.09 0.08 0.07 0.07 0.07 0.08 0.06 0.06 0.05 0.05 0.05 0.05 0.03 0.02 0.02 0.01 0.02 0.02 0.01
0.01 0.02 0.02 0.02 0.02 0.02 0.01 0.01 0.01 0.02 0.02 0.02 0.04 0.02 0.01 0.01 0.01 0.02 0.01 0.01 0.01 0.01 0.01 0.02 0.06 0.10 0.11 0.11 0.11 0.12 0.12 0.09 0.07 0.05 0.05 0.05 0.04 0.05 0.03 0.02 0.02 0.02 0.02 0.01
0.02 0.02 0.02 0.02 0.01 0.01 0.01 0.02 0.01 0.01 0.01 0.01 0.02 0.03 0.01 0.01 0.01 0.01 0.01 0.01 0.01 0.03 0.03 0.03 0.05 0.11 0.13 0.13 0.13 0.12 0.11 0.08 0.05 0.04 0.03 0.04 0.03 0.04 0.04 0.03 0.03 0.03 0.01 0.01
0.03 0.03 0.02 0.02 0.01 0.01 0.02 0.03 0.01 0.01 0.01 0.01 0.01 0.02 0.02 0.01 0.01 0.01 0.01 0.01 0.02 0.03 0.03 0.04 0.05 0.06 0.08 0.10 0.10 0.11 0.10 0.06 0.04 0.04 0.04 0.04 0.04 0.04 0.05 0.03 0.03 0.03 0.03 0.03
0.03 0.04 0.03 0.01 0.01 0.01 0.03 0.03 0.01 0.01 0.01 0.02 0.02 0.02 0.02 0.01 0.01 0.01 0.02 0.02 0.02 0.03 0.03 0.03 0.04 0.03 0.05 0.09 0.09 0.09 0.10 0.09 0.07 0.07 0.06 0.06 0.06 0.05 0.05 0.04 0.03 0.04 0.05 0.04
0.05 0.04 0.04 0.02 0.01 0.02 0.02 0.02 0.01 0.01 0.01 0.01 0.01 0.01 0.01 0.01 0.01 0.01 0.02 0.02 0.02 0.02 0.02 0.02 0.04 0.03 0.02 0.05 0.10 0.10 0.10 0.12 0.11 0.08 0.08 0.07 0.05 0.05 0.05 0.04 0.03 0.04 0.05 0.05
0.04 0.03 0.03 0.01 0.01 0.01 0.01 0.01 0.01 0.01 0.01 0.01 0.01 0.01 0.01 0.01 0.02 0.02 0.02 0.03 0.03 0.03 0.03 0.02 0.02 0.02 0.01 0.01 0.03 0.05 0.05 0.08 0.08 0.05 0.05 0.05 0.04 0.04 0.03 0.04 0.05 0.04 0.05 0.06
0.02 0.02 0.01 0.01 0.01 0.00 0.00 0.00 0.01 0.01 0.01 0.01 0.01 0.01 0.01 0.02 0.02 0.03 0.04 0.04 0.04 0.04 0.04 0.02 0.02 0.01 0.01 0.01 0.01 0.01 0.02 0.03 0.04 0.03 0.03 0.03 0.03 0.03 0.03 0.04 0.05 0.05 0.07 0.08
0.02 0.01 0.01 0.01 0.01 0.00 0.00 0.00 0.00 0.01 0.01 0.01 0.02 0.01 0.01 0.02 0.02 0.03 0.03 0.03 0.03 0.03 0.03 0.03 0.02 0.02 0.02 0.02 0.02 0.02 0.02 0.02 0.02 0.01 0.01 0.02 0.02 0.02 0.03 0.04 0.05 0.06 0.06 0.07
0.02 0.01 0.01 0.01 0.01 0.01 0.01 0.01 0.01 0.01 0.01 0.02 0.02 0.02 0.02 0.02 0.02 0.02 0.03 0.04 0.04 0.03 0.02 0.02 0.02 0.02 0.02 0.02 0.03 0.03 0.03 0.03 0.02 0.02 0.02 0.02 0.02 0.02 0.03 0.02 0.03 0.03 0.03 0.04
0.01 0.01 0.01 0.01 0.01 0.01 0.01 0.01 0.01 0.01 0.01 0.02 0.02 0.02 0.02 0.02 0.02 0.02 0.03 0.05 0.06 0.06 0.04 0.03 0.02 0.02 0.02 0.01 0.01 0.02 0.03 0.02 0.03 0.02 0.02 0.02 0.02 0.01 0.02 0.01 0.02 0.02 0.01 0.02
0.01 0.01 0.01 0.01 0.01 0.01 0.01 0.01 0.01 0.01 0.01 0.02 0.02 0.02 0.02 0.02 0.03 0.03 0.03 0.03 0.04 0.05 0.06 0.04 0.03 0.01 0.01 0.01 0.01 0.01 0.01 0.02 0.03 0.02 0.01 0.01 0.02 0.01 0.01 0.01 0.03 0.02 0.01 0.01
0.02 0.01 0.01 0.01 0.01 0.01 0.01 0.01 0.01 0.01 0.01 0.01 0.01 0.02 0.02 0.03 0.04 0.04 0.03 0.03 0.03 0.02 0.02 0.02 0.02 0.01 0.01 0.01 0.01 0.01 0.01 0.01 0.01 0.01 0.01 0.01 0.01 0.01 0.01 0.01 0.02 0.03 0.02 0.02
0.02 0.01 0.01 0.01 0.01 0.01 0.01 0.02 0.02 0.02 0.02 0.02 0.03 0.02 0.03 0.03 0.04 0.05 0.04 0.03 0.03 0.02 0.01 0.01 0.01 0.01 0.01 0.01 0.01 0.01 0.00 0.01 0.01 0.01 0.00 0.01 0.01 0.01 0.01 0.01 0.02 0.03 0.03 0.03
0.01 0.01 0.01 0.01 0.02 0.02 0.02 0.02 0.03 0.03 0.03 0.04 0.04 0.04 0.04 0.05 0.06 0.05 0.04 0.03 0.02 0.02 0.02 0.02 0.01 0.01 0.01 0.01 0.01 0.01 0.00 0.00 0.00 0.00 0.00 0.01 0.01 0.01 0.01 0.02 0.02 0.03 0.03 0.03
0.02 0.02 0.02 0.02 0.02 0.02 0.02 0.02 0.02 0.02 0.03 0.03 0.04 0.04 0.05 0.05 0.05 0.05 0.05 0.04 0.03 0.03 0.03 0.03 0.02 0.02 0.01 0.01 0.01 0.01 0.00 0.00 0.00 0.00 0.01 0.01 0.02 0.02 0.02 0.02 0.02 0.02 0.03 0.03
0.01 0.01 0.02 0.03 0.03 0.03 0.03 0.03 0.02 0.03 0.02 0.03 0.03 0.04 0.05 0.04 0.03 0.02 0.04 0.05 0.05 0.05 0.04 0.03 0.03 0.02 0.01 0.01 0.01 0.01 0.01 0.01 0.01 0.01 0.01 0.02 0.02 0.03 0.03 0.03 0.02 0.03 0.04 0.03
0.01 0.01 0.02 0.02 0.03 0.03 0.03 0.03 0.02 0.02 0.03 0.03 0.04 0.04 0.04 0.03 0.02 0.02 0.02 0.03 0.04 0.04 0.04 0.04 0.03 0.03 0.02 0.01 0.01 0.01 0.01 0.01 0.01 0.01 0.02 0.02 0.02 0.02 0.02 0.02 0.02 0.03 0.04 0.04
0.01 0.01 0.02 0.02 0.02 0.02 0.02 0.02 0.02 0.02 0.02 0.03 0.03 0.04 0.03 0.03 0.02 0.02 0.02 0.02 0.02 0.03 0.03 0.04 0.04 0.04 0.03 0.02 0.01 0.01 0.01 0.01 0.01 0.01 0.02 0.02 0.02 0.02 0.02 0.02 0.03 0.03 0.04 0.04
0.01 0.01 0.01 0.01 0.02 0.02 0.02 0.02 0.02 0.02 0.02 0.03 0.03 0.04 0.03 0.03 0.03 0.02 0.03 0.03 0.02 0.02 0.03 0.03 0.03 0.04 0.04 0.03 0.02 0.01 0.01 0.01 0.02 0.02 0.02 0.02 0.02 0.02 0.02 0.02 0.03 0.03 0.04 0.04
0.01 0.01 0.01 0.01 0.02 0.02 0.02 0.02 0.02 0.02 0.02 0.02 0.02 0.03 0.02 0.02 0.03 0.03 0.03 0.03 0.02 0.02 0.03 0.03 0.03 0.03 0.02 0.02 0.02 0.02 0.01 0.01 0.02 0.03 0.03 0.02 0.01 0.01 0.02 0.02 0.03 0.03 0.04 0.03
0.02 0.02 0.02 0.02 0.01 0.02 0.02 0.03 0.03 0.02 0.02 0.02 0.02 0.02 0.02 0.02 0.02 0.03 0.03 0.02 0.02 0.02 0.03 0.04 0.04 0.04 0.03 0.02 0.02 0.03 0.02 0.02 0.02 0.03 0.03 0.02 0.01 0.01 0.01 0.01 0.01 0.02 0.02 0.03
0.02 0.03 0.03 0.02 0.02 0.03 0.03 0.03 0.03 0.03 0.02 0.02 0.01 0.02 0.02 0.02 0.03 0.02 0.02 0.02 0.01 0.01 0.02 0.03 0.04 0.04 0.04 0.03 0.03 0.03 0.03 0.04 0.04 0.05 0.05 0.03 0.02 0.01 0.01 0.01 0.01 0.01 0.01 0.01
0.02 0.02 0.02 0.02 0.01 0.02 0.03 0.03 0.03 0.03 0.02 0.02 0.02 0.02 0.02 0.02 0.02 0.01 0.01 0.01 0.01 0.01 0.02 0.03 0.03 0.04 0.04 0.05 0.05 0.05 0.05 0.05 0.05 0.06 0.04 0.03 0.02 0.02 0.02 0.02 0.01 0.01 0.01 0.01
0.01 0.01 0.01 0.01 0.01 0.01 0.02 0.02 0.02 0.02 0.03 0.03 0.03 0.03 0.03 0.02 0.02 0.01 0.01 0.01 0.01 0.01 0.01 0.01 0.02 0.03 0.03 0.04 0.04 0.04 0.05 0.05 0.05 0.05 0.04 0.03 0.04 0.03 0.02 0.02 0.02 0.02 0.02 0.02
MSLP
1013.88 1013.56 1013.31 1013.17 1013.15 1013.26 1013.48 1013.77 1014.08 1014.37 1014.60 1014.75 1014.78 1014.71 1014.54 1014.30 1014.00 1013.67 1013.32 1012.97 1012.62 1012.28 1011.94 1011.60 1011.26 1010.92 1010.59 1010.29 1010.04 1009.85 1009.75 1009.75 1009.85 1010.05 1010.34 1010.69 1011.08 1011.48 1011.84 1012.15 1012.38 1012.53 1012.59 1012.58
1014.57 1014.35 1014.20 1014.15 1014.20 1014.36 1014.60 1014.88 1015.16 1015.39 1015.54 1015.58 1015.50 1015.31 1015.04 1014.69 1014.32 1013.93 1013.55 1013.19 1012.85 1012.53 1012.21 1011.90 1011.58 1011.25 1010.94 1010.64 1010.38 1010.18 1010.06 1010.04 1010.12 1010.30 1010.55 1010.88 1011.23 1011.58 1011.90 1012.18 1012.38 1012.51 1012.57 1012.56
1015.15 1015.03 1014.98 1015.02 1015.14 1015.34 1015.59 1015.85 1016.07 1016.22 1016.27 1016.19 1015.99 1015.68 1015.29 1014.86 1014.40 1013.95 1013.54 1013.16 1012.83 1012.52 1012.23 1011.94 1011.65 1011.36 1011.06 1010.78 1010.53 1010.34 1010.22 1010.18 1010.24 1010.38 1010.60 1010.87 1011.17 1011.46 1011.73 1011.95 1012.11 1012.21 1012.25 1012.23
1015.64 1015.61 1015.65 1015.75 1015.93 1016.15 1016.38 1016.60 1016.76 1016.82 1016.76 1016.57 1016.25 1015.83 1015.34 1014.81 1014.28 1013.77 1013.32 1012.92 1012.58 1012.28 1012.00 1011.74 1011.47 1011.21 1010.94 1010.68 1010.45 1010.27 1010.15 1010.11 1010.14 1010.25 1010.42 1010.64 1010.87 1011.09 1011.29 1011.44 1011.55 1011.60 1011.60 1011.57
1016.09 1016.13 1016.22 1016.37 1016.56 1016.77 1016.98 1017.14 1017.22 1017.18 1017.02 1016.73 1016.30 1015.78 1015.20 1014.59 1013.99 1013.44 1012.94 1012.51 1012.15 1011.84 1011.56 1011.30 1011.05 1010.81 1010.56 1010.33 1010.12 1009.96 1009.85 1009.80 1009.82 1009.90 1010.03 1010.18 1010.34 1010.49 1010.62 1010.70 1010.74 1010.74 1010.70 1010.64
1016.55 1016.62 1016.73 1016.88 1017.06 1017.24 1017.39 1017.48 1017.48 1017.36 1017.10 1016.71 1016.20 1015.59 1014.94 1014.26 1013.60 1012.99 1012.45 1011.98 1011.58 1011.24 1010.95 1010.68 1010.43 1010.19 1009.96 1009.75 1009.57 1009.43 1009.34 1009.30 1009.31 1009.37 1009.46 1009.56 1009.67 1009.75 1009.81 1009.82 1009.80 1009.74 1009.66 1009.57
1017.01 1017.08 1017.18 1017.32 1017.46 1017.58 1017.67 1017.68 1017.59 1017.37 1017.03 1016.56 1015.97 1015.30 1014.58 1013.85 1013.14 1012.48 1011.88 1011.36 1010.92 1010.54 1010.21 1009.92 1009.65 1009.41 1009.20 1009.01 1008.86 1008.74 1008.67 1008.65 1008.67 1008.72 1008.79 1008.86 1008.92 1008.96 1008.96 1008.92 1008.85 1008.75 1008.63 1008.51
1017.46 1017.52 1017.59 1017.68 1017.77 1017.82 1017.83 1017.75 1017.57 1017.28 1016.85 1016.31 1015.66 1014.93 1014.16 1013.38 1012.63 1011.91 1011.27 1010.69 1010.19 1009.76 1009.39 1009.07 1008.79 1008.55 1008.34 1008.18 1008.05 1007.97 1007.93 1007.93 1007.96 1008.02 1008.08 1008.14 1008.18 1008.19 1008.16 1008.09 1007.99 1007.87 1007.73 1007.59
1017.87 1017.90 1017.94 1017.97 1017.99 1017.97 1017.88 1017.72 1017.45 1017.07 1016.57 1015.96 1015.26 1014.49 1013.68 1012.86 1012.06 1011.31 1010.61 1009.99 1009.44 1008.97 1008.55 1008.20 1007.91 1007.66 1007.46 1007.32 1007.22 1007.16 1007.16 1007.18 1007.24 1007.31 1007.38 1007.44 1007.47 1007.47 1007.44 1007.36 1007.25 1007.12 1006.98 1006.85
1018.22 1018.21 1018.20 1018.17 1018.11 1018.01 1017.83 1017.57 1017.22 1016.76 1016.19 1015.52 1014.77 1013.96 1013.11 1012.27 1011.44 1010.66 1009.93 1009.27 1008.69 1008.18 1007.74 1007.37 1007.06 1006.81 1006.62 1006.49 1006.41 1006.38 1006.39 1006.44 1006.51 1006.59 1006.67 1006.73 1006.77 1006.77 1006.74 1006.68 1006.59 1006.47 1006.35 1006.24
1018.47 1018.42 1018.36 1018.26 1018.12 1017.93 1017.66 1017.31 1016.86 1016.32 1015.68 1014.96 1014.17 1013.33 1012.46 1011.61 1010.77 1009.98 1009.24 1008.57 1007.97 1007.45 1007.00 1006.61 1006.29 1006.04 1005.85 1005.72 1005.64 1005.62 1005.63 1005.68 1005.75 1005.83 1005.90 1005.96 1006.00 1006.02 1006.00 1005.96 1005.89 1005.81 1005.72 1005.65
1018.61 1018.52 1018.40 1018.24 1018.01 1017.73 1017.36 1016.91 1016.38 1015.76 1015.05 1014.28 1013.46 1012.60 1011.74 1010.89 1010.06 1009.29 1008.57 1007.91 1007.33 1006.81 1006.36 1005.97 1005.65 1005.38 1005.18 1005.03 1004.94 1004.89 1004.88 1004.90 1004.94 1005.00 1005.05 1005.09 1005.11 1005.12 1005.12 1005.09 1005.05 1005.01 1004.97 1004.93
1018.66 1018.53 1018.35 1018.11 1017.80 1017.41 1016.95 1016.41 1015.78 1015.09 1014.33 1013.52 1012.67 1011.82 1010.97 1010.15 1009.37 1008.64 1007.96 1007.35 1006.79 1006.30 1005.86 1005.48 1005.15 1004.86 1004.63 1004.45 1004.31 1004.21 1004.15 1004.11 1004.09 1004.09 1004.09 1004.09 1004.09 1004.07 1004.06 1004.04 1004.02 1004.01 1004.00 1004.02
1018.66 1018.47 1018.22 1017.90 1017.50 1017.02 1016.46 1015.83 1015.12 1014.36 1013.55 1012.72 1011.87 1011.04 1010.24 1009.47 1008.75 1008.09 1007.48 1006.92 1006.42 1005.96 1005.54 1005.15 1004.81 1004.50 1004.22 1003.98 1003.77 1003.60 1003.46 1003.34 1003.24 1003.16 1003.09 1003.03 1002.97 1002.92 1002.88 1002.85 1002.83 1002.83 1002.86 1002.91
1018.62 1018.38 1018.06 1017.65 1017.16 1016.59 1015.94 1015.22 1014.45 1013.63 1012.80 1011.96 1011.14 1010.35 1009.60 1008.91 1008.27 1007.69 1007.16 1006.68 1006.23 1005.81 1005.41 1005.02 1004.65 1004.30 1003.97 1003.65 1003.37 1003.11 1002.87 1002.67 1002.48 1002.31 1002.16 1002.02 1001.90 1001.80 1001.71 1001.65 1001.62 1001.61 1001.65 1001.72
1018.57 1018.27 1017.88 1017.39 1016.82 1016.17 1015.44 1014.65 1013.83 1012.98 1012.14 1011.31 1010.53 1009.80 1009.14 1008.53 1007.99 1007.50 1007.06 1006.65 1006.25 1005.87 1005.48 1005.08 1004.68 1004.29 1003.89 1003.51 1003.14 1002.80 1002.48 1002.19 1001.92 1001.67 1001.44 1001.23 1001.05 1000.88 1000.74 1000.63 1000.57 1000.54 1000.57 1000.64
1018.52 1018.15 1017.69 1017.14 1016.50 1015.78 1014.99 1014.16 1013.31 1012.45 1011.63 1010.84 1010.12 1009.46 1008.88 1008.38 1007.93 1007.54 1007.17 1006.83 1006.48 1006.12 1005.73 1005.33 1004.90 1004.46 1004.01 1003.56 1003.14 1002.73 1002.35 1001.99 1001.66 1001.36 1001.08 1000.81 1000.57 1000.35 1000.15 1000.00 999.88 999.82 999.81 999.87
1018.45 1018.03 1017.51 1016.90 1016.21 1015.44 1014.62 1013.77 1012.92 1012.08 1011.29 1010.56 1009.91 1009.34 1008.85 1008.44 1008.08 1007.77 1007.48 1007.18 1006.87 1006.52 1006.14 1005.72 1005.27 1004.79 1004.31 1003.83 1003.36 1002.92 1002.51 1002.13 1001.78 1001.45 1001.15 1000.85 1000.58 1000.31 1000.07 999.87 999.70 999.59 999.54 999.56
1018.34 1017.88 1017.32 1016.67 1015.94 1015.15 1014.33 1013.49 1012.65 1011.86 1011.12 1010.46 1009.89 1009.41 1009.00 1008.68 1008.40 1008.15 1007.91 1007.66 1007.36 1007.03 1006.65 1006.22 1005.75 1005.27 1004.77 1004.28 1003.81 1003.38 1002.97 1002.61 1002.27 1001.96 1001.66 1001.36 1001.08 1000.80 1000.53 1000.28 1000.07 999.91 999.82 999.80
1018.20 1017.70 1017.11 1016.44 1015.70 1014.91 1014.10 1013.29 1012.50 1011.76 1011.09 1010.50 1010.01 1009.60 1009.28 1009.02 1008.80 1008.60 1008.40 1008.17 1007.90 1007.57 1007.19 1006.77 1006.30 1005.82 1005.33 1004.86 1004.42 1004.02 1003.66 1003.34 1003.04 1002.77 1002.51 1002.24 1001.97 1001.69 1001.41 1001.14 1000.90 1000.70 1000.57 1000.50
1018.01 1017.48 1016.88 1016.20 1015.46 1014.70 1013.92 1013.15 1012.42 1011.74 1011.14 1010.63 1010.21 1009.87 1009.60 1009.40 1009.22 1009.06 1008.88 1008.67 1008.40 1008.09 1007.72 1007.31 1006.86 1006.40 1005.95 1005.52 1005.12 1004.78 1004.47 1004.21 1003.97 1003.75 1003.53 1003.31 1003.07 1002.81 1002.54 1002.27 1002.02 1001.80 1001.64 1001.54
1017.79 1017.25 1016.63 1015.96 1015.24 1014.51 1013.77 1013.06 1012.39 1011.78 1011.25 1010.80 1010.43 1010.15 1009.93 1009.75 1009.61 1009.46 1009.30 1009.10 1008.85 1008.56 1008.21 1007.82 1007.40 1006.98 1006.57 1006.19 1005.85 1005.55 1005.30 1005.10 1004.91 1004.75 1004.58 1004.40 1004.19 1003.96 1003.72 1003.47 1003.23 1003.01 1002.84 1002.74
1017.55 1017.00 1016.38 1015.73 1015.04 1014.35 1013.66 1013.01 1012.40 1011.85 1011.38 1010.98 1010.66 1010.41 1010.22 1010.07 1009.94 1009.81 1009.66 1009.47 1009.24 1008.96 1008.64 1008.29 1007.92 1007.54 1007.17 1006.84 1006.54 1006.29 1006.09 1005.92 1005.77 1005.64 1005.51 1005.36 1005.19 1005.00 1004.80 1004.58 1004.37 1004.18 1004.04 1003.94
1017.31 1016.76 1016.15 1015.52 1014.88 1014.23 1013.60 1013.00 1012.45 1011.96 1011.53 1011.17 1010.89 1010.66 1010.49 1010.35 1010.22 1010.10 1009.96 1009.79 1009.59 1009.34 1009.06 1008.74 1008.41 1008.08 1007.76 1007.46 1007.20 1006.97 1006.79 1006.63 1006.50 1006.39 1006.27 1006.15 1006.01 1005.86 1005.70 1005.53 1005.37 1005.24 1005.13 1005.07
1017.08 1016.53 1015.96 1015.36 1014.76 1014.17 1013.60 1013.06 1012.56 1012.12 1011.73 1011.40 1011.14 1010.92 1010.75 1010.62 1010.50 1010.38 1010.26 1010.11 1009.93 1009.72 1009.48 1009.21 1008.92 1008.63 1008.34 1008.07 1007.83 1007.61 1007.42 1007.27 1007.13 1007.01 1006.90 1006.79 1006.68 1006.56 1006.45 1006.34 1006.24 1006.17 1006.13 1006.12
1016.85 1016.33 1015.79 1015.25 1014.71 1014.18 1013.67 1013.18 1012.74 1012.34 1011.98 1011.68 1011.43 1011.22 1011.05 1010.91 1010.80 1010.69 1010.57 1010.45 1010.30 1010.13 1009.93 1009.70 1009.46 1009.21 1008.95 1008.70 1008.46 1008.24 1008.05 1007.87 1007.72 1007.59 1007.47 1007.37 1007.28 1007.20 1007.14 1007.09 1007.06 1007.06 1007.08 1007.13
1016.62 1016.14 1015.66 1015.17 1014.70 1014.24 1013.79 1013.37 1012.98 1012.62 1012.30 1012.02 1011.77 1011.57 1011.40 1011.26 1011.14 1011.03 1010.93 1010.82 1010.71 1010.57 1010.42 1010.24 1010.04 1009.82 1009.60 1009.37 1009.14 1008.92 1008.71 1008.53 1008.36 1008.22 1008.11 1008.02 1007.95 1007.91 1007.89 1007.91 1007.94 1008.00 1008.09 1008.18
Thickness
5705 5713 5713 5712 5712 5715 5715 5719 5717 5723 5725 5728 5731 5732 5733 5734 5733 5732 5732 5733 5732 5730 5728 5727 5727 5727 5727 5725 5724 5721 5718 5715 5712 5711 5709 5707 5705 5703 5702 5701 5700 5698 5696 5696
5691 5703 5705 5703 5708 5710 5712 5716 5716 5717 5716 5726 5728 5728 5726 5726 5724 5723 5724 5726 5725 5723 5721 5719 5718 5718 5718 5717 5715 5713 5711 5709 5706 5703 5701 5699 5697 5697 5696 5694 5693 5691 5691 5690
5681 5693 5692 5688 5701 5704 5706 5710 5710 5705 5710 5717 5715 5715 5716 5717 5717 5717 5718 5718 5718 5716 5714 5712 5711 5710 5709 5709 5708 5705 5703 5700 5698 5697 5694 5692 5692 5690 5689 5688 5686 5684 5684 5684
5677 5675 5664 5688 5705 5704 5701 5702 5706 5704 5705 5706 5706 5707 5710 5710 5710 5709 5710 5711 5710 5709 5707 5705 5704 5702 5702 5701 5699 5697 5695 5693 5692 5690 5688 5686 5685 5684 5682 5681 5679 5678 5678 5678
5667 5666 5670 5683 5690 5693 5689 5689 5696 5695 5695 5698 5700 5699 5700 5702 5703 5702 5703 5702 5701 5701 5700 5697 5696 5695 5694 5693 5691 5689 5687 5686 5685 5683 5681 5680 5679 5678 5676 5675 5673 5673 5674 5673
5659 5655 5657 5672 5683 5690 5685 5676 5687 5688 5685 5689 5689 5687 5690 5693 5694 5694 5693 5693 5693 5693 5691 5688 5687 5687 5685 5683 5681 5679 5679 5678 5678 5676 5675 5674 5673 5671 5671 5670 5669 5669 5668 5668
5650 5651 5661 5669 5676 5679 5664 5665 5677 5680 5678 5680 5680 5681 5682 5684 5685 5685 5684 5684 5684 5684 5682 5680 5679 5678 5675 5674 5672 5672 5671 5670 5669 5668 5668 5667 5666 5664 5664 5663 5663 5662 5662 5661
5643 5642 5648 5660 5665 5660 5659 5666 5668 5670 5671 5672 5673 5674 5674 5675 5675 5676 5676 5676 5675 5674 5673 5672 5671 5669 5667 5665 5664 5664 5663 5661 5660 5660 5660 5661 5658 5657 5657 5656 5655 5655 5654 5654
5642 5642 5646 5652 5653 5654 5656 5656 5658 5661 5664 5665 5665 5665 5666 5666 5667 5667 5668 5667 5667 5666 5664 5663 5663 5662 5659 5657 5656 5655 5654 5652 5651 5651 5651 5651 5651 5651 5651 5650 5649 5649 5649 5649
5632 5637 5641 5644 5646 5648 5649 5650 5653 5655 5657 5658 5657 5658 5658 5658 5658 5658 5658 5658 5658 5657 5656 5654 5654 5653 5651 5649 5648 5646 5645 5644 5644 5644 5643 5643 5643 5644 5643 5643 5643 5643 5642 5642
5624 5629 5632 5635 5637 5639 5641 5644 5646 5648 5651 5651 5651 5651 5651 5650 5650 5650 5650 5649 5649 5648 5647 5646 5645 5644 5643 5641 5640 5638 5637 5637 5637 5638 5638 5635 5635 5634 5634 5633 5632 5632 5634 5634
5616 5621 5621 5623 5629 5633 5633 5636 5639 5640 5642 5644 5644 5644 5644 5643 5642 5642 5641 5641 5640 5640 5640 5638 5637 5636 5634 5633 5632 5631 5630 5630 5632 5632 5631 5630 5628 5626 5620 5621 5619 5618 5618 5620
5611 5615 5616 5619 5622 5625 5627 5629 5631 5633 5634 5635 5637 5637 5636 5635 5634 5634 5633 5632 5632 5632 5632 5631 5629 5627 5626 5626 5625 5623 5623 5623 5624 5625 5624 5623 5622 5621 5617 5612 5609 5609 5608 5608
5606 5607 5608 5611 5613 5618 5620 5622 5624 5626 5628 5629 5629 5628 5627 5626 5626 5625 5625 5625 5624 5624 5623 5623 5621 5620 5619 5618 5617 5616 5616 5616 5615 5616 5617 5617 5616 5615 5614 5612 5610 5607 5602 5600
5601 5603 5604 5606 5608 5610 5612 5614 5615 5616 5618 5619 5619 5618 5617 5616 5616 5616 5616 5616 5617 5616 5616 5616 5614 5612 5611 5611 5610 5609 5609 5610 5609 5610 5611 5611 5610 5610 5609 5607 5606 5604 5602 5597
5594 5597 5598 5599 5601 5603 5605 5606 5607 5608 5609 5609 5609 5609 5609 5608 5607 5608 5607 5608 5608 5608 5608 5607 5606 5606 5605 5605 5604 5603 5603 5599 5599 5602 5603 5604 5603 5603 5602 5601 5599 5598 5596 5595
5586 5588 5591 5592 5594 5596 5599 5600 5601 5601 5601 5601 5601 5601 5601 5600 5599 5598 5599 5600 5600 5600 5600 5599 5599 5599 5599 5599 5598 5599 5599 5596 5591 5595 5596 5596 5596 5596 5595 5594 5593 5592 5590 5587
5584 5585 5586 5587 5588 5590 5592 5594 5594 5594 5594 5594 5594 5593 5592 5591 5591 5591 5591 5592 5592 5591 5591 5591 5591 5591 5591 5591 5591 5593 5592 5591 5590 5589 5588 5588 5588 5588 5588 5587 5586 5585 5583 5581
5581 5582 5583 5584 5584 5585 5585 5586 5586 5586 5586 5586 5585 5584 5584 5584 5584 5584 5584 5584 5583 5583 5583 5583 5579 5582 5582 5582 5582 5585 5587 5586 5584 5583 5582 5579 5580 5582 5582 5581 5579 5578 5576 5574
5577 5578 5578 5578 5579 5579 5578 5579 5578 5578 5578 5578 5578 5577 5576 5576 5577 5577 5576 5576 5577 5577 5576 5574 5574 5575 5575 5575 5574 5579 5580 5580 5579 5577 5576 5576 5575 5575 5575 5574 5572 5570 5568 5566
5571 5572 5572 5572 5572 5572 5572 5572 5571 5570 5570 5571 5570 5570 5570 5569 5570 5570 5571 5571 5570 5569 5568 5566 5569 5570 5571 5569 5567 5574 5575 5573 5572 5571 5570 5569 5568 5568 5567 5566 5565 5563 5561 5559
5565 5566 5566 5566 5565 5565 5565 5565 5564 5564 5563 5563 5563 5563 5562 5562 5563 5564 5565 5565 5564 5561 5563 5565 5566 5563 5562 5561 5567 5569 5569 5567 5565 5564 5563 5562 5561 5560 5559 5558 5557 5556 5554 5552
5559 5560 5560 5560 5559 5559 5559 5559 5558 5557 5557 5557 5557 5556 5556 5557 5558 5559 5559 5559 5559 5555 5559 5560 5556 5553 5551 5557 5562 5563 5563 5560 5558 5557 5555 5554 5553 5552 5551 5550 5549 5548 5547 5545
5553 5553 5553 5553 5553 5553 5552 5552 5552 5552 5552 5553 5553 5552 5552 5553 5553 5555 5555 5552 5550 5548 5553 5551 5547 5546 5545 5553 5556 5557 5557 5555 5554 5552 5551 5550 5549 5547 5546 5544 5542 5541 5541 5539
5548 5548 5547 5547 5547 5548 5547 5547 5547 5547 5547 5548 5549 5549 5549 5549 5548 5549 5549 5548 5545 5544 5548 5546 5542 5541 5544 5549 5551 5551 5551 5550 5550 5548 5547 5545 5544 5543 5541 5540 5538 5537 5536 5534
5544 5544 5544 5543 5544 5544 5545 5545 5545 5544 5545 5545 5545 5545 5545 5545 5544 5544 5543 5544 5543 5541 5544 5543 5542 5539 5543 5545 5546 5546 5545 5544 5544 5543 5542 5541 5540 5538 5536 5534 5532 5531 5530 5528
5541 5542 5541 5541 5541 5541 5541 5541 5541 5541 5542 5542 5541 5541 5540 5540 5540 5540 5540 5540 5540 5540 5541 5541 5541 5540 5541 5541 5541 5541 5540 5539 5539 5538 5538 5536 5535 5532 5531 5529 5527 5525 5524 5522